Location: ?
(35.4214°N, 139.3011°E)
Time: 22:33:19
(UTC+00:00)

BREEZE-M R/B - Pass Details

Date: 14 July 2020
Orbit: 311 x 4532 km, 49.7° (Epoch: 10 August)

Event Time Altitude Azimuth Distance (km) Brightness Sun altitude
Rises 11:26:31 0° 307° (NW) 6,637 10.2 -15.6°
Reaches altitude 10° 11:31:55 10° 308° (NW) 4,896 9.0 -16.4°
Maximum altitude 11:43:39 81° 223° (SW) 1,176 4.4 -18.1°
Enters shadow 11:46:36 32° 139° (SE) 1,515 4.4 -18.5°
